Temperature
15 14 14 14 14 14 14 14 14 14 14 15 15 15 15 15 15 15 15 15 15 15 15 15 15 15 15 15 15 15 15 15 15 15 15 15 15 15 15 15 15 15 15
15 14 14 14 14 14 14 14 14 14 14 14 14 15 15 15 15 15 15 15 15 15 15 15 15 15 15 15 15 15 15 15 15 15 15 15 15 15 15 15 15 15 15
14 14 14 14 14 14 14 14 14 14 14 14 14 14 14 14 14 14 14 15 15 15 15 15 15 15 15 15 15 15 15 15 15 15 15 15 15 15 15 15 15 15 15
14 14 14 14 14 14 14 14 14 14 14 14 14 14 14 14 14 14 14 14 14 15 15 15 15 15 15 15 15 15 15 15 15 15 15 15 15 14 15 15 15 15 15
14 14 14 14 13 13 13 13 14 14 14 14 14 14 14 14 14 14 14 14 14 14 14 14 15 14 15 15 14 14 14 14 14 14 14 14 14 14 14 14 14 14 14
14 13 13 13 13 13 13 13 13 13 13 13 14 14 13 14 14 14 14 14 14 14 14 14 14 14 14 14 14 14 14 14 14 14 14 14 14 14 14 14 14 14 14
13 13 13 13 13 13 13 13 13 13 13 13 13 13 13 13 13 13 14 14 14 14 14 14 14 14 14 14 14 14 14 14 14 14 14 14 14 14 14 14 14 14 14
13 13 13 13 13 13 13 13 13 13 13 13 13 13 13 13 13 13 13 13 13 13 13 14 14 14 14 14 14 14 14 14 14 14 14 14 14 14 14 14 14 14 14
13 13 13 13 13 13 13 13 13 13 13 13 13 13 13 13 13 13 13 13 13 13 13 13 13 13 13 13 13 13 13 13 13 13 13 13 13 13 14 14 13 14 14
12 12 12 12 12 12 12 12 12 12 12 13 12 12 12 12 13 12 13 13 13 13 13 13 13 13 13 13 13 13 13 13 13 13 13 13 13 13 13 13 13 13 13
12 12 12 12 12 12 12 12 12 12 12 12 12 12 12 12 12 12 12 12 12 12 13 13 13 13 13 13 13 13 13 13 13 13 13 13 13 13 13 13 13 13 13
12 12 12 12 12 12 12 12 12 12 12 12 12 12 12 12 12 12 12 12 12 12 12 12 12 12 12 13 13 13 13 13 13 13 13 13 13 13 13 13 13 13 13
12 12 12 12 12 11 11 11 11 11 11 11 11 11 11 11 11 11 12 12 12 12 12 12 12 12 12 12 12 12 12 12 12 12 12 12 12 12 12 12 12 12 12
12 12 12 11 11 11 11 11 11 11 11 11 11 11 11 11 11 11 11 11 11 12 12 12 12 12 12 12 12 12 12 12 12 12 12 12 12 12 12 12 12 12 12
12 11 11 11 11 11 11 11 11 11 11 11 11 11 11 11 11 11 11 11 11 11 11 11 11 11 11 11 11 11 11 12 11 11 11 11 11 11 11 11 11 11 11
11 11 11 11 11 11 11 11 10 10 10 10 10 10 10 10 10 10 10 10 11 11 11 11 11 11 11 11 11 11 11 11 11 11 11 11 11 11 11 11 11 11 11
11 11 11 11 11 11 11 10 10 10 10 10 10 10 10 10 10 10 10 10 10 10 10 10 10 10 10 10 10 10 10 11 11 11 11 11 11 11 11 11 10 10 11
11 11 11 11 10 10 10 10 10 10 10 10 10 10 9 9 10 10 10 10 10 10 10 10 10 10 10 10 10 10 10 10 10 10 10 10 10 10 10 10 10 10 10
10 10 10 10 10 10 10 10 10 10 9 9 9 9 9 9 9 9 9 9 9 9 9 9 9 9 9 9 10 10 10 10 10 10 10 9 10 10 10 10 10 10 10
10 10 10 10 10 10 10 9 9 9 9 9 9 9 9 9 9 9 9 9 9 9 9 9 9 9 9 9 9 9 9 9 9 9 9 9 9 9 9 9 9 9 9
10 10 10 10 9 9 9 9 9 9 9 9 9 9 9 9 9 9 8 8 8 8 8 8 8 8 8 8 8 9 9 9 9 9 9 9 9 9 9 9 9 9 9
10 9 9 9 9 9 9 9 9 9 9 9 9 8 8 8 8 8 8 8 8 8 8 8 8 8 8 8 8 8 8 8 8 8 8 8 8 8 9 9 9 9 9
9 9 9 9 9 9 9 9 8 8 8 8 8 8 8 8 8 8 8 8 8 8 8 8 8 8 8 8 8 8 7 7 7 8 8 8 8 8 8 8 8 8 8
9 9 9 9 9 9 8 8 8 8 8 8 8 8 8 8 8 7 7 7 7 7 8 8 7 7 7 7 7 7 7 7 7 7 7 7 8 8 8 8 8 8 8
8 8 8 8 8 8 8 8 8 8 7 7 7 7 7 7 7 7 7 7 7 7 7 7 7 7 7 7 7 7 7 7 7 7 7 7 7 7 7 7 7 7 7
7 8 8 8 8 8 7 7 7 7 7 7 7 6 6 6 7 7 7 7 7 7 7 7 7 7 7 7 7 7 7 7 7 7 7 7 7 7 7 7 7 7 7
Wind_Speed
3 3 6 8 8 8 8 8 8 8 9 9 9 9 9 9 8 8 8 9 8 8 9 10 10 10 11 12 12 12 12 13 13 13 13 13 13 14 14 14 14 14 16
4 5 7 8 8 8 8 7 7 7 8 8 8 8 8 8 8 8 7 7 8 8 9 10 10 10 11 12 12 12 12 13 13 12 12 12 12 13 13 13 13 13 15
5 6 8 8 8 8 8 7 7 7 7 7 7 7 7 7 7 7 7 7 7 8 9 9 10 10 11 11 11 11 12 12 12 12 11 10 10 11 12 12 13 14 15
6 6 7 9 8 8 7 7 7 6 6 6 6 6 6 6 6 6 6 7 7 8 9 9 9 9 10 10 10 10 11 12 11 11 10 9 9 10 11 11 12 13 14
5 6 7 9 8 8 7 7 7 6 6 5 5 6 5 5 5 5 6 6 7 7 8 8 9 9 9 9 9 10 10 10 10 10 9 8 8 9 10 11 12 12 13
5 6 7 8 8 7 7 7 6 6 6 4 5 5 5 5 5 5 6 7 7 7 7 8 8 8 9 9 10 10 10 10 10 9 8 8 7 9 11 11 12 12 13
4 5 6 7 7 7 7 6 6 5 5 4 4 5 5 5 5 5 7 7 7 7 7 8 8 8 8 9 9 10 10 10 10 9 8 7 7 9 10 11 12 12 13
5 4 5 6 7 7 7 6 6 5 5 4 4 5 4 5 5 5 6 6 6 7 7 8 8 8 8 9 9 9 10 9 9 8 7 6 7 8 10 10 11 12 12
4 4 4 5 5 6 6 6 6 5 5 4 4 4 4 4 4 4 5 5 6 6 7 8 8 8 8 9 9 9 9 9 9 7 6 6 6 8 9 9 10 11 12
3 3 3 4 5 5 6 6 6 6 5 5 5 5 4 4 4 4 4 5 5 6 6 7 7 8 8 8 8 9 8 8 8 6 5 5 6 7 8 9 10 10 10
2 1 2 3 3 4 5 5 5 5 6 6 5 5 5 5 4 4 4 5 5 6 6 6 7 7 8 7 8 8 8 7 6 5 4 5 5 6 7 8 9 10 10
3 2 2 2 3 3 4 4 4 4 5 5 5 5 5 5 4 4 5 5 6 6 6 6 7 7 6 6 6 7 6 6 5 4 4 5 5 6 7 8 9 9 9
4 3 2 2 3 4 3 4 3 4 4 4 4 4 4 5 4 4 5 5 5 5 5 5 5 5 5 5 5 5 5 5 4 4 4 5 5 6 7 8 8 8 9
3 3 3 2 3 3 4 3 3 3 3 3 3 4 4 3 3 3 3 3 4 4 4 5 5 5 5 5 5 5 5 4 4 3 4 5 5 6 7 8 8 8 8
3 4 3 3 3 3 3 3 3 2 2 3 3 3 4 3 2 2 3 3 3 4 4 4 4 5 4 4 4 4 4 4 4 4 4 5 5 6 6 7 8 8 8
4 4 3 4 4 4 3 3 3 3 3 3 3 3 4 4 3 3 2 2 2 3 4 4 4 4 4 4 4 4 3 4 4 4 4 4 5 5 5 6 7 7 8
4 3 3 4 3 4 4 3 3 3 3 3 3 3 4 4 4 3 2 2 2 3 4 5 5 4 3 3 3 3 3 3 4 4 4 4 4 4 4 5 5 6 7
3 3 3 3 3 3 3 3 3 3 3 2 3 3 4 4 5 4 3 2 2 3 4 3 3 3 3 3 2 2 2 3 3 3 3 3 3 3 3 4 4 5 6
3 3 3 2 3 3 3 3 3 3 3 2 3 3 3 4 4 4 3 2 3 3 3 3 3 3 3 3 2 2 2 2 2 3 3 3 3 3 3 4 4 4 5
2 2 2 2 2 3 2 2 2 2 2 2 2 2 3 3 4 4 3 3 3 3 2 2 3 2 3 3 3 3 2 2 2 2 1 2 2 3 3 4 3 3 4
1 1 2 2 2 3 3 3 2 2 1 1 1 2 3 3 4 4 3 3 3 3 3 3 3 3 2 2 2 2 2 2 2 1 1 1 2 2 3 3 4 3 3
2 1 2 2 3 3 3 3 2 2 2 2 1 2 2 3 3 3 3 2 2 3 3 3 3 2 1 1 2 2 1 1 2 2 1 1 1 2 2 2 3 3 2
1 2 2 2 3 3 3 3 3 2 2 1 1 1 1 2 3 3 3 2 2 3 3 4 4 3 2 1 1 2 2 2 1 1 1 0 0 1 1 1 1 2 2
2 1 1 2 2 3 3 4 5 3 2 2 2 1 1 2 2 2 3 2 2 2 3 4 3 3 4 3 1 1 1 2 2 1 1 1 1 1 1 1 1 2 2
1 1 1 2 2 2 3 4 5 3 2 2 2 2 1 1 1 1 2 2 2 2 2 3 3 3 3 3 2 1 1 1 1 2 2 2 2 2 1 2 2 3 4
2 2 2 2 2 2 3 3 4 4 3 3 2 2 1 1 1 1 1 1 1 2 2 3 3 4 3 3 2 2 2 2 2 2 2 2 3 2 2 2 3 4 5
Wind_Direction
198 185 161 146 136 128 124 118 113 110 107 103 104 104 104 104 103 105 105 102 100 100 102 101 98 97 98 101 100 99 97 95 93 91 91 93 97 98 98 95 93 91 94
169 163 154 145 139 132 126 120 116 114 113 109 108 108 107 108 109 111 111 109 107 105 103 105 101 97 95 98 101 100 100 98 94 89 88 89 96 101 101 99 98 100 98
139 145 145 142 140 133 127 124 121 119 118 116 114 113 113 114 114 113 114 112 113 111 106 106 105 102 98 98 100 102 101 100 96 90 87 87 95 102 105 103 103 105 102
134 134 139 138 137 136 131 129 128 125 124 122 121 120 120 120 119 116 117 114 113 114 109 108 108 106 103 103 103 103 104 101 97 92 87 88 96 104 107 108 107 106 105
119 128 138 138 136 137 136 133 132 131 129 122 125 126 127 126 123 123 122 116 113 114 112 109 112 111 108 105 107 107 108 105 100 95 90 89 97 106 108 109 110 109 109
118 125 135 141 138 135 135 136 137 139 135 127 129 132 130 128 127 126 127 121 119 118 116 114 115 112 110 108 109 108 108 107 102 99 96 95 100 107 108 108 111 111 110
126 124 133 140 138 133 130 129 131 137 142 136 133 134 134 131 127 127 128 127 127 124 121 121 122 118 115 115 112 108 105 106 104 101 100 101 107 111 110 108 109 110 110
130 123 133 135 132 132 131 130 126 125 126 130 138 138 133 133 133 130 135 137 134 133 127 125 123 125 124 120 118 111 108 107 106 103 103 105 110 115 113 110 111 111 112
118 113 113 124 126 127 128 134 130 126 124 121 120 120 120 124 129 136 141 143 144 141 135 129 125 124 124 122 119 113 111 109 108 108 111 113 116 121 121 121 120 118 115
111 111 106 117 122 124 127 133 137 125 116 113 106 100 101 102 103 111 135 136 138 140 136 131 127 126 126 125 121 117 114 111 109 110 115 126 127 129 128 128 129 126 123
134 128 120 121 125 131 134 134 133 125 115 108 99 95 98 94 97 101 120 136 136 133 130 131 128 127 125 125 122 121 118 115 114 113 126 137 139 142 139 133 130 129 127
184 187 165 150 144 137 132 123 120 119 114 106 100 95 100 101 99 102 105 117 121 119 118 127 125 120 117 114 117 118 114 117 114 117 136 150 152 150 144 135 133 133 130
193 186 188 172 149 142 131 128 121 113 109 107 106 103 102 101 98 97 95 102 104 102 99 110 108 106 107 110 111 113 116 113 109 116 135 154 159 153 147 142 139 138 139
185 192 193 177 156 151 142 136 133 124 118 116 121 126 115 98 98 105 99 106 111 111 109 109 108 104 103 110 115 114 113 109 107 114 131 143 151 150 151 151 148 145 141
197 201 196 187 176 161 146 144 141 141 140 149 143 139 136 123 124 120 111 108 115 121 120 117 117 113 107 100 103 111 111 108 106 106 117 128 139 140 145 151 151 149 147
208 212 204 193 180 162 162 162 159 154 153 152 154 153 149 146 144 136 121 112 119 126 125 122 119 114 107 104 91 93 100 104 101 96 110 121 127 136 146 148 155 154 152
211 210 201 194 177 168 168 166 157 154 153 150 159 155 146 145 148 143 130 119 126 127 125 116 109 104 100 96 89 82 81 89 96 94 103 112 127 136 144 145 147 154 158
193 193 201 186 171 179 173 162 152 146 140 145 152 152 150 148 150 142 134 122 129 125 121 125 122 112 102 100 92 78 67 71 81 89 94 105 117 132 139 136 138 147 152
189 186 190 172 171 181 178 154 137 128 121 121 129 136 142 139 145 140 136 135 131 121 119 134 125 127 125 111 98 77 62 70 75 87 85 95 114 127 132 127 129 149 156
168 168 177 168 171 167 160 133 120 108 105 101 109 121 126 131 132 128 125 123 128 128 124 129 131 117 126 127 102 68 47 57 72 89 82 85 101 119 125 122 122 139 160
117 124 164 171 176 162 162 160 158 165 155 125 103 110 126 129 127 126 126 128 137 142 147 141 127 121 122 133 104 69 39 45 59 52 54 80 85 95 107 111 122 130 155
167 169 172 181 178 175 173 171 165 162 165 158 125 98 116 133 134 138 135 154 157 141 140 146 138 136 139 130 124 123 86 14 14 0 45 97 98 100 101 113 122 126 144
181 193 190 192 180 170 156 137 120 100 84 89 106 106 92 127 135 139 150 152 158 161 170 170 165 155 161 174 127 150 158 203 275 348 12 21 27 104 145 152 147 157 173
211 197 176 173 165 160 147 145 148 149 157 178 172 160 90 107 120 130 138 146 156 172 180 184 179 171 163 173 147 53 139 156 166 220 329 331 299 244 212 231 220 222 210
173 143 139 136 145 149 148 154 153 144 152 142 138 132 118 94 100 118 134 143 156 176 184 182 182 176 173 178 172 158 100 78 136 165 229 277 304 282 245 230 225 232 230
72 79 95 123 130 137 143 149 153 151 142 130 129 150 155 152 124 87 116 125 146 169 184 190 188 182 182 179 180 173 172 167 178 171 198 238 258 281 280 244 234 230 231
Height
1516 1518 1520 1521 1523 1524 1525 1526 1527 1528 1528 1529 1530 1531 1532 1533 1534 1534 1535 1536 1537 1538 1539 1540 1541 1542 1543 1543 1544 1545 1546 1547 1547 1548 1549 1550 1550 1551 1552 1552 1553 1554 1554
1515 1517 1519 1521 1522 1523 1524 1525 1526 1527 1528 1529 1530 1531 1532 1533 1533 1534 1535 1536 1537 1538 1539 1540 1541 1542 1543 1544 1545 1546 1547 1548 1548 1549 1550 1551 1552 1552 1553 1554 1555 1555 1556
1515 1517 1519 1520 1522 1523 1524 1525 1526 1527 1528 1529 1530 1531 1532 1532 1533 1534 1535 1536 1537 1538 1539 1540 1541 1542 1543 1544 1546 1547 1547 1548 1549 1550 1551 1552 1553 1554 1554 1555 1556 1557 1558
1515 1517 1518 1520 1521 1522 1524 1524 1525 1527 1528 1529 1529 1530 1531 1532 1533 1534 1535 1536 1537 1538 1539 1540 1542 1543 1544 1545 1546 1547 1548 1549 1550 1551 1552 1553 1554 1555 1555 1556 1557 1558 1559
1515 1516 1518 1519 1521 1522 1523 1524 1525 1526 1527 1528 1529 1530 1531 1532 1533 1534 1535 1536 1537 1538 1540 1541 1542 1543 1544 1545 1546 1547 1548 1550 1551 1552 1553 1554 1555 1556 1556 1557 1558 1559 1560
1515 1516 1517 1519 1520 1521 1522 1523 1524 1525 1526 1527 1528 1529 1530 1531 1532 1533 1534 1535 1537 1538 1539 1540 1542 1543 1544 1545 1546 1547 1549 1550 1551 1552 1553 1554 1555 1556 1557 1558 1559 1560 1561
1514 1516 1517 1518 1519 1520 1521 1522 1523 1524 1525 1526 1527 1528 1529 1530 1531 1532 1533 1535 1536 1537 1539 1540 1541 1542 1544 1545 1546 1547 1548 1550 1551 1552 1554 1555 1556 1557 1558 1559 1560 1561 1562
1514 1515 1516 1517 1518 1519 1520 1521 1522 1523 1524 1525 1526 1527 1529 1529 1530 1531 1533 1534 1535 1536 1538 1539 1540 1542 1543 1544 1546 1547 1548 1550 1551 1552 1554 1555 1556 1557 1558 1559 1560 1561 1562
1513 1514 1515 1516 1517 1518 1519 1520 1521 1522 1523 1524 1525 1526 1527 1529 1530 1531 1532 1533 1534 1536 1537 1538 1539 1541 1542 1544 1545 1547 1548 1550 1551 1552 1554 1555 1556 1557 1558 1559 1560 1561 1562
1512 1514 1514 1515 1516 1517 1518 1519 1520 1521 1522 1523 1524 1525 1526 1527 1528 1530 1531 1532 1533 1535 1536 1537 1539 1540 1542 1543 1545 1546 1548 1549 1551 1552 1553 1555 1556 1557 1558 1559 1560 1561 1562
1511 1512 1513 1514 1515 1516 1517 1518 1519 1520 1521 1522 1523 1524 1525 1526 1527 1528 1530 1531 1532 1533 1535 1536 1538 1539 1541 1542 1544 1545 1547 1548 1550 1551 1553 1554 1555 1556 1557 1558 1560 1561 1562
1509 1511 1511 1512 1513 1514 1515 1516 1517 1518 1519 1520 1521 1522 1524 1525 1526 1527 1528 1530 1531 1532 1533 1535 1536 1538 1539 1541 1543 1544 1546 1548 1549 1551 1552 1553 1554 1555 1557 1558 1559 1560 1561
1508 1509 1509 1511 1512 1513 1514 1515 1516 1517 1518 1519 1520 1521 1522 1523 1525 1526 1527 1528 1529 1530 1532 1533 1535 1536 1538 1540 1541 1543 1545 1546 1548 1550 1551 1552 1553 1554 1556 1557 1558 1559 1560
1505 1506 1507 1508 1510 1511 1512 1513 1514 1515 1516 1517 1518 1519 1520 1521 1523 1524 1525 1526 1528 1529 1530 1532 1533 1535 1537 1538 1540 1542 1543 1545 1547 1548 1550 1551 1552 1553 1555 1556 1557 1558 1559
1503 1504 1505 1506 1507 1508 1510 1511 1512 1513 1514 1515 1516 1517 1518 1520 1521 1522 1523 1525 1526 1527 1529 1530 1532 1533 1535 1537 1539 1540 1542 1543 1545 1547 1548 1550 1551 1553 1554 1555 1556 1557 1558
1500 1501 1502 1504 1505 1506 1507 1509 1510 1511 1512 1513 1514 1515 1516 1518 1519 1520 1521 1523 1524 1526 1527 1529 1530 1532 1533 1535 1537 1539 1540 1542 1544 1545 1547 1548 1550 1551 1552 1554 1555 1556 1557
1497 1498 1500 1501 1503 1504 1505 1506 1507 1508 1510 1511 1512 1513 1514 1516 1517 1518 1519 1521 1522 1524 1525 1527 1529 1530 1531 1533 1535 1537 1539 1540 1542 1544 1545 1547 1549 1550 1551 1552 1553 1554 1556
1495 1496 1497 1499 1500 1502 1503 1504 1505 1506 1507 1509 1510 1511 1512 1513 1515 1516 1517 1519 1520 1522 1523 1525 1526 1528 1529 1531 1533 1535 1537 1539 1540 1542 1544 1545 1547 1548 1549 1551 1552 1553 1554
1492 1493 1494 1496 1497 1499 1501 1502 1503 1504 1505 1507 1508 1509 1510 1511 1512 1514 1515 1517 1518 1520 1521 1523 1524 1526 1527 1529 1531 1533 1535 1537 1538 1540 1542 1543 1545 1546 1548 1549 1550 1551 1552
1489 1490 1492 1493 1495 1496 1498 1499 1501 1502 1503 1505 1506 1507 1508 1509 1510 1512 1513 1515 1516 1518 1519 1521 1522 1524 1526 1527 1529 1531 1533 1535 1536 1538 1539 1541 1542 1544 1545 1546 1548 1549 1550
1486 1487 1489 1490 1492 1493 1494 1496 1497 1499 1501 1502 1503 1504 1506 1507 1508 1509 1511 1512 1514 1516 1517 1519 1520 1522 1523 1525 1527 1529 1530 1532 1534 1535 1537 1538 1540 1541 1543 1544 1545 1546 1547
1483 1484 1485 1487 1489 1490 1491 1493 1495 1497 1498 1500 1501 1502 1503 1504 1505 1507 1508 1510 1512 1513 1515 1516 1518 1519 1521 1523 1525 1526 1528 1530 1530 1531 1533 1535 1537 1538 1540 1541 1542 1543 1545
1480 1481 1482 1484 1485 1487 1489 1490 1492 1494 1496 1497 1498 1499 1501 1502 1503 1504 1506 1507 1509 1511 1512 1514 1516 1517 1519 1521 1523 1524 1525 1526 1527 1528 1530 1532 1534 1535 1537 1538 1539 1540 1541
1477 1478 1480 1481 1482 1484 1486 1487 1489 1490 1492 1493 1495 1497 1498 1499 1500 1502 1503 1504 1506 1507 1509 1511 1513 1514 1516 1518 1520 1521 1523 1524 1525 1525 1527 1529 1530 1532 1533 1534 1536 1537 1538
1474 1476 1477 1478 1480 1481 1483 1485 1486 1488 1489 1491 1493 1494 1495 1497 1498 1499 1500 1502 1503 1504 1506 1507 1509 1511 1513 1514 1516 1518 1519 1520 1521 1523 1523 1525 1527 1528 1530 1531 1532 1533 1535
1472 1473 1474 1476 1477 1479 1481 1482 1484 1486 1487 1489 1490 1491 1493 1494 1495 1497 1498 1499 1500 1501 1502 1504 1505 1507 1509 1511 1512 1514 1515 1517 1518 1519 1520 1521 1523 1524 1526 1527 1528 1530 1531